Location: *
(50.3194°N, 7.1067°E)
Time: 07:12:27
(UTC+00:00)

CZ-2C R/B - Pass Details

Date: 22 September 2019
Orbit: 704 x 907 km, 98.1° (Epoch: 20 October)

Event Time Altitude Azimuth Distance (km) Brightness Sun altitude
Exits shadow 19:55:55 37° 174° (S) 1,261 3.8 -22.9°
Maximum altitude 19:58:08 80° 256° (WSW) 860 3.2 -23.2°
Drops below altitude 10° 20:03:47 10° 344° (NNW) 2,533 6.3 -24.0°
Sets 20:06:15 0° 346° (NNW) 3,498 7.1 -24.3°
